Probability
65 58 68 68 74 74 71 68 65 68 58 58 61 61 52 42 45 48 39 39 35 35 39 32 29 32 29 32 29 26 32 29 26 23 19 19 19 16 13 19 16 13 13
65 61 58 68 61 61 58 55 55 55 52 48 52 58 52 45 45 45 42 42 42 42 39 32 26 29 32 26 26 29 35 35 19 26 26 19 16 13 19 19 13 13 23
55 58 61 61 55 58 55 48 45 48 48 45 45 45 39 42 42 32 39 39 42 42 39 35 35 26 26 29 29 29 29 26 29 23 19 26 26 16 13 13 13 16 13
58 52 45 48 52 55 52 45 48 48 45 42 42 39 39 32 35 35 35 32 39 39 39 39 35 32 32 35 26 29 29 29 29 23 19 23 23 23 19 16 16 13 16
52 48 48 52 52 48 45 42 42 39 32 42 39 42 39 29 26 32 32 29 32 35 35 35 32 29 26 23 23 19 19 19 19 23 19 16 19 19 19 16 16 19 19
45 45 52 48 48 48 42 42 39 42 35 35 35 29 26 23 16 16 29 32 35 35 35 32 26 26 23 10 6 6 10 13 16 16 19 23 26 23 23 13 19 16 16
48 52 52 45 45 39 35 42 39 39 39 39 32 29 26 19 6 6 6 26 32 32 32 29 23 19 23 26 13 3 3 3 3 10 16 16 16 19 19 19 19 19 19
48 48 45 45 42 35 39 39 39 39 42 42 35 35 29 19 6 6 3 10 26 26 32 32 29 29 23 23 19 16 23 19 10 3 10 13 10 19 13 19 19 16 23
42 42 42 39 39 39 42 39 45 42 42 42 35 32 29 23 10 6 0 16 26 26 26 29 26 29 13 16 23 16 19 19 16 13 6 10 10 3 3 16 16 13 13
29 32 35 35 32 32 39 45 42 39 35 32 26 29 23 26 13 0 0 13 26 26 26 23 16 19 16 6 13 13 16 16 16 16 16 6 3 3 0 6 16 13 13
32 32 35 35 32 32 32 39 35 29 29 32 29 26 26 23 13 0 0 10 19 26 23 19 16 3 0 0 0 6 6 6 6 10 13 16 16 16 10 10 10 10 13
32 35 35 32 32 29 32 32 32 29 29 29 29 32 32 19 10 3 0 0 3 16 16 16 13 0 0 0 0 0 0 0 6 6 6 10 10 10 3 6 3 10 10
42 39 29 32 29 29 32 26 29 35 19 19 19 19 16 16 13 6 0 0 0 6 13 10 0 0 0 0 0 0 0 0 3 3 3 3 3 3 3 6 13 13 16
42 42 32 32 26 32 32 23 23 19 16 10 10 10 13 16 16 6 6 0 0 0 0 0 0 0 0 0 0 0 0 0 3 3 3 3 6 6 6 3 6 10 10
32 35 26 23 26 29 26 19 23 19 13 13 13 13 13 13 10 6 10 10 6 3 0 0 3 6 3 3 3 3 6 0 0 3 3 3 3 3 3 6 6 6 3
35 32 19 23 26 23 16 13 6 3 6 3 10 10 3 3 3 0 0 0 0 0 0 10 6 3 3 6 6 6 3 3 3 3 3 3 3 3 3 3 3 3 6
35 32 23 19 23 23 23 13 13 6 0 0 0 0 3 0 0 0 0 0 0 0 0 6 6 6 3 3 3 6 3 6 3 3 3 3 3 3 3 6 6 6 3
32 32 26 29 19 13 19 19 16 13 10 6 0 0 0 0 0 0 0 0 0 0 0 6 6 6 3 3 3 3 3 0 3 6 6 3 3 3 6 6 6 6 6
29 29 26 23 19 16 16 16 16 16 16 10 6 0 0 0 0 0 0 0 0 0 0 3 0 6 6 6 6 6 6 3 3 6 3 3 3 3 3 6 6 6 3
32 16 19 19 16 16 16 10 10 13 13 13 10 6 0 0 0 0 0 0 3 3 3 3 3 3 0 0 3 3 3 3 6 3 3 3 3 3 3 3 3 3 6
26 16 13 16 16 16 13 10 16 13 13 13 13 6 0 0 0 3 0 0 3 0 0 0 0 3 3 0 0 0 3 3 3 3 0 6 3 3 3 3 3 3 3
19 16 16 16 13 13 6 10 10 13 10 13 13 3 0 0 0 0 0 0 0 0 0 0 0 0 0 0 0 0 0 0 0 0 3 3 0 0 3 3 3 3 3
16 16 13 13 13 6 6 13 13 10 10 10 10 3 0 0 0 0 0 0 0 0 0 3 0 0 0 0 0 0 0 0 0 0 0 0 0 3 3 3 3 3 3
10 6 10 10 10 10 10 10 10 10 10 6 6 3 0 0 0 0 0 0 0 0 0 3 0 0 0 0 0 0 0 0 0 0 0 0 0 0 0 3 3 3 3
13 10 6 10 10 10 10 10 10 10 10 6 6 6 3 0 0 0 0 0 0 0 0 0 0 0 0 0 0 0 0 0 0 0 0 0 0 0 0 0 0 0 0
13 6 6 6 6 6 6 6 10 10 10 6 6 6 6 3 0 0 0 0 0 0 0 0 0 0 0 0 0 0 0 0 0 0 0 0 0 0 0 0 0 0 0
Height
5855 5854 5853 5852 5851 5850 5848 5847 5846 5844 5843 5842 5841 5840 5838 5837 5836 5835 5834 5833 5832 5831 5830 5829 5829 5828 5827 5826 5825 5824 5823 5822 5822 5821 5820 5820 5820 5820 5821 5821 5822 5822 5823
5851 5850 5849 5848 5847 5846 5844 5843 5842 5840 5839 5838 5837 5836 5834 5833 5831 5830 5829 5828 5827 5826 5826 5825 5824 5823 5822 5821 5820 5819 5818 5817 5816 5815 5814 5814 5814 5813 5814 5814 5814 5815 5816
5846 5844 5844 5843 5842 5841 5840 5839 5837 5836 5834 5833 5832 5831 5830 5829 5827 5825 5824 5823 5822 5821 5820 5819 5818 5817 5816 5815 5814 5813 5811 5810 5809 5809 5808 5808 5808 5807 5807 5807 5807 5807 5808
5841 5840 5839 5838 5838 5837 5835 5834 5833 5831 5830 5829 5827 5826 5825 5824 5822 5820 5819 5818 5817 5816 5815 5813 5812 5811 5810 5809 5807 5806 5805 5804 5803 5802 5801 5801 5800 5799 5799 5799 5799 5800 5800
5837 5835 5835 5833 5833 5831 5830 5829 5828 5826 5825 5824 5822 5821 5819 5818 5816 5815 5813 5811 5810 5809 5808 5807 5805 5804 5803 5802 5801 5799 5798 5797 5796 5795 5794 5794 5793 5792 5792 5792 5792 5792 5793
5832 5831 5830 5828 5827 5826 5825 5824 5822 5821 5820 5818 5817 5815 5813 5812 5810 5808 5807 5805 5803 5802 5801 5799 5798 5798 5796 5795 5794 5792 5791 5790 5789 5788 5787 5786 5785 5784 5784 5784 5784 5785 5785
5827 5826 5825 5823 5822 5820 5819 5818 5817 5815 5814 5812 5811 5809 5807 5805 5804 5802 5800 5798 5797 5795 5794 5792 5791 5790 5789 5788 5786 5785 5784 5782 5781 5781 5780 5778 5778 5777 5777 5777 5776 5777 5778
5822 5821 5819 5818 5816 5815 5814 5812 5811 5809 5808 5806 5804 5803 5801 5799 5797 5795 5793 5791 5790 5788 5787 5785 5784 5783 5782 5780 5779 5777 5776 5775 5774 5773 5772 5771 5770 5769 5769 5769 5769 5769 5769
5816 5815 5814 5812 5811 5809 5808 5807 5805 5804 5802 5800 5798 5796 5794 5792 5790 5788 5786 5784 5782 5781 5779 5778 5776 5775 5774 5772 5770 5769 5767 5766 5765 5764 5763 5762 5761 5761 5760 5760 5760 5760 5761
5810 5809 5808 5806 5805 5804 5802 5801 5799 5797 5795 5794 5792 5790 5788 5785 5783 5781 5779 5777 5775 5773 5771 5770 5768 5767 5765 5764 5762 5760 5759 5758 5756 5756 5755 5754 5753 5752 5752 5752 5752 5751 5752
5803 5802 5801 5800 5798 5797 5796 5794 5793 5791 5789 5787 5785 5783 5781 5778 5776 5774 5771 5769 5767 5765 5763 5761 5759 5758 5757 5755 5753 5752 5750 5749 5748 5747 5746 5745 5744 5744 5743 5743 5742 5742 5743
5796 5795 5794 5793 5791 5790 5789 5787 5786 5784 5782 5780 5778 5775 5773 5771 5769 5766 5764 5762 5759 5757 5755 5753 5751 5749 5748 5746 5744 5743 5741 5740 5739 5738 5737 5737 5736 5735 5734 5734 5734 5733 5733
5789 5788 5787 5786 5784 5783 5781 5780 5778 5777 5775 5773 5770 5767 5766 5763 5761 5758 5756 5753 5751 5749 5747 5745 5743 5741 5739 5737 5735 5734 5732 5731 5730 5729 5728 5727 5726 5726 5725 5725 5725 5724 5724
5781 5780 5779 5778 5777 5775 5774 5772 5771 5769 5767 5765 5762 5760 5758 5756 5753 5750 5747 5745 5743 5741 5739 5737 5734 5732 5730 5728 5726 5725 5723 5722 5720 5719 5718 5717 5716 5716 5716 5715 5715 5715 5715
5772 5771 5770 5769 5768 5767 5765 5764 5762 5761 5759 5757 5755 5752 5750 5748 5746 5743 5740 5737 5735 5733 5731 5729 5726 5724 5722 5720 5718 5716 5714 5712 5711 5709 5708 5706 5706 5706 5705 5705 5704 5704 5704
5764 5763 5761 5760 5759 5758 5756 5755 5753 5752 5750 5748 5746 5744 5741 5739 5737 5735 5732 5729 5727 5725 5723 5720 5718 5715 5713 5711 5709 5707 5705 5703 5701 5699 5697 5696 5696 5695 5694 5694 5693 5693 5693
5755 5753 5752 5751 5750 5749 5747 5746 5744 5743 5741 5739 5737 5735 5733 5731 5728 5726 5724 5721 5719 5717 5714 5712 5710 5707 5704 5702 5700 5697 5695 5693 5691 5689 5688 5686 5686 5685 5684 5684 5683 5683 5683
5746 5745 5744 5743 5741 5740 5739 5737 5735 5733 5732 5730 5728 5726 5724 5722 5720 5718 5715 5713 5711 5708 5706 5703 5701 5698 5696 5693 5691 5688 5686 5684 5682 5681 5679 5677 5676 5675 5675 5674 5674 5674 5675
5737 5736 5735 5734 5733 5731 5729 5728 5726 5724 5723 5721 5719 5717 5715 5713 5711 5709 5707 5705 5702 5700 5697 5695 5692 5690 5687 5685 5682 5680 5677 5675 5674 5672 5671 5669 5668 5666 5666 5665 5665 5666 5666
5728 5727 5726 5725 5724 5722 5720 5719 5717 5715 5713 5712 5710 5709 5707 5705 5703 5701 5699 5696 5694 5691 5689 5686 5684 5681 5679 5676 5674 5671 5669 5668 5666 5664 5663 5661 5659 5658 5657 5657 5657 5657 5657
5719 5718 5717 5716 5715 5713 5712 5710 5708 5706 5705 5703 5702 5700 5698 5696 5694 5692 5690 5688 5685 5683 5680 5678 5675 5673 5671 5668 5666 5664 5662 5660 5658 5656 5655 5653 5651 5650 5649 5649 5648 5648 5648
5710 5709 5708 5707 5706 5705 5703 5701 5700 5698 5696 5695 5693 5691 5689 5688 5686 5684 5682 5680 5677 5675 5672 5670 5667 5665 5663 5661 5658 5656 5654 5652 5650 5648 5646 5644 5643 5642 5641 5640 5640 5640 5640
5701 5701 5700 5699 5698 5696 5695 5693 5692 5690 5689 5687 5685 5683 5681 5679 5677 5676 5674 5671 5669 5667 5665 5662 5659 5657 5655 5653 5650 5648 5646 5644 5642 5640 5638 5637 5635 5634 5633 5633 5632 5632 5631
5694 5693 5692 5691 5690 5688 5687 5685 5684 5682 5680 5679 5677 5675 5673 5671 5669 5667 5665 5663 5661 5659 5657 5654 5652 5649 5647 5645 5643 5640 5638 5636 5634 5632 5631 5629 5628 5627 5626 5624 5624 5623 5623
5687 5685 5684 5683 5682 5680 5679 5677 5675 5674 5672 5671 5669 5667 5665 5662 5660 5658 5657 5655 5653 5651 5649 5646 5644 5641 5639 5637 5635 5632 5630 5628 5626 5624 5623 5621 5620 5619 5618 5617 5616 5615 5614
5679 5678 5676 5675 5674 5672 5670 5669 5667 5666 5664 5662 5660 5659 5657 5655 5652 5650 5648 5646 5644 5642 5640 5638 5636 5633 5631 5629 5626 5624 5622 5620 5618 5616 5615 5613 5612 5611 5609 5608 5607 5607 5606
Wind_Speed
17 17 18 18 17 18 18 18 18 18 18 18 18 18 18 18 18 18 19 19 19 19 19 19 19 19 20 21 21 21 21 21 20 20 21 20 21 21 21 22 22 22 21
18 19 19 19 19 19 19 20 20 19 19 19 19 20 20 20 21 21 21 21 21 21 21 21 21 21 21 22 22 23 23 23 22 21 21 21 22 22 22 23 24 25 24
19 19 20 20 20 20 21 21 21 21 21 21 21 21 21 22 22 22 22 23 23 23 23 23 23 23 23 23 23 22 22 23 23 22 22 23 23 23 24 24 24 25 25
20 20 20 21 21 21 22 22 23 23 22 22 22 22 23 23 23 23 24 24 24 24 24 24 24 24 24 23 23 24 24 24 23 23 23 24 24 24 23 23 23 24 26
21 21 21 21 22 22 22 23 23 23 23 23 23 23 24 24 24 24 24 25 25 25 26 26 25 25 25 25 25 25 25 25 24 24 24 24 24 24 24 24 24 23 24
22 22 22 23 23 23 23 23 23 24 24 24 24 24 24 25 25 25 26 26 26 26 27 27 26 25 26 26 26 26 26 26 25 25 25 25 25 25 25 25 25 25 25
23 23 23 22 22 22 23 23 23 24 24 24 24 25 25 26 26 26 26 27 27 27 27 27 27 26 27 27 27 28 27 27 26 26 27 26 25 25 26 26 26 26 26
22 23 23 23 23 23 23 23 24 24 24 24 24 25 26 27 27 27 27 27 27 27 27 27 27 27 27 28 28 29 29 28 28 28 28 28 27 27 27 27 27 27 27
23 23 24 24 23 23 23 23 23 24 24 24 24 25 25 26 26 27 27 27 27 27 27 28 28 28 28 29 29 29 30 29 29 29 28 28 28 28 28 28 28 28 28
24 24 24 24 23 23 24 24 24 25 25 25 25 25 26 26 26 26 27 27 28 28 28 29 29 29 29 29 29 29 29 29 28 28 29 29 29 29 29 29 29 30 29
25 25 25 25 25 24 25 25 25 26 26 26 26 27 27 27 26 27 27 28 29 29 29 29 29 29 29 29 29 28 28 29 28 28 29 28 28 29 29 30 30 30 30
26 26 26 26 26 26 26 26 26 27 27 28 27 27 27 27 28 28 28 29 29 29 29 29 28 28 29 29 29 29 29 30 30 29 29 29 29 29 29 29 30 30 31
28 28 28 28 28 28 27 27 28 28 28 28 27 28 28 29 29 29 30 30 29 29 29 28 28 28 29 29 29 30 30 30 30 30 30 30 30 30 30 30 29 29 30
29 29 29 29 29 29 28 28 29 28 28 29 30 30 30 30 30 30 30 30 30 29 28 28 28 28 28 29 29 29 30 30 30 31 30 30 30 31 31 30 30 30 30
30 30 31 30 30 30 30 30 29 29 30 30 31 31 32 31 31 31 30 29 29 29 29 28 28 29 29 29 29 29 29 29 29 29 30 30 29 30 31 31 31 31 32
31 31 31 31 31 32 32 31 31 31 31 31 31 32 32 32 32 31 30 29 29 29 29 29 29 29 29 29 28 28 29 29 29 29 29 29 29 30 30 31 32 31 31
32 31 30 31 31 31 32 32 31 31 31 31 31 31 31 32 31 29 29 30 30 30 30 29 29 28 28 28 28 28 28 28 27 27 27 28 29 30 30 30 31 31 29
31 30 30 30 30 31 30 31 31 31 31 31 31 30 30 31 30 29 30 30 30 30 30 30 30 29 29 29 29 29 28 27 26 27 27 28 28 28 28 28 28 29 29
30 30 30 30 30 30 30 30 31 31 31 31 30 30 30 30 30 30 29 29 29 29 29 30 29 29 28 28 28 28 27 26 26 26 26 27 27 27 28 27 27 28 28
30 30 30 29 29 30 30 30 30 31 30 30 30 29 29 29 29 29 29 29 29 29 28 29 28 28 27 27 27 27 26 26 26 26 27 27 27 27 27 27 27 27 27
29 29 29 29 30 30 30 30 30 30 30 29 29 29 29 29 29 29 29 29 29 28 28 28 28 27 27 27 26 26 26 26 26 26 26 27 27 26 25 26 27 27 27
28 29 28 28 28 29 29 29 29 29 29 28 29 29 29 29 30 29 29 29 29 28 28 28 28 27 27 27 27 27 26 26 26 26 27 26 25 25 25 25 26 26 27
26 26 28 28 28 28 28 29 29 28 29 28 29 29 29 30 30 29 28 28 28 28 28 29 28 27 28 28 28 27 27 27 27 26 25 24 24 24 25 25 26 26 26
25 26 27 27 27 28 28 28 29 29 29 29 29 29 29 29 29 28 27 27 27 27 28 28 28 28 28 28 28 27 27 27 26 25 25 25 25 24 24 24 25 26 26
25 26 26 27 27 28 28 28 28 28 29 29 29 29 28 27 27 27 27 27 28 28 28 29 29 28 28 28 28 28 27 27 26 25 25 25 25 25 25 25 25 25 25
24 24 25 25 26 27 27 27 27 27 28 28 28 28 27 27 27 27 28 28 28 28 28 28 29 28 28 27 27 26 27 26 25 25 25 26 26 26 26 26 26 26 26
Wind_Direction
293 293 295 298 299 299 299 301 302 302 302 302 304 304 301 300 301 300 299 298 297 296 296 295 294 294 290 288 287 288 288 288 288 286 283 280 276 274 271 268 266 266 266
291 290 292 295 295 295 297 298 299 299 298 298 298 300 300 298 299 298 296 295 295 295 295 295 294 294 293 291 289 288 287 286 283 282 282 281 279 276 272 271 267 265 265
289 289 290 291 292 292 294 295 296 296 296 296 296 296 296 298 300 298 295 293 293 293 293 294 293 292 292 291 290 289 289 287 285 281 280 281 282 280 275 273 270 266 266
291 289 288 289 290 290 291 293 294 296 297 296 297 296 297 298 298 298 295 293 292 292 292 293 292 292 292 291 289 287 287 287 285 282 281 280 280 279 276 274 272 269 267
293 293 291 292 290 290 291 292 293 295 296 296 297 297 297 298 297 297 296 296 294 292 291 292 290 290 291 290 289 288 287 285 285 282 281 281 280 277 275 274 272 271 269
294 295 293 293 292 290 292 293 293 294 296 297 298 299 298 298 298 297 297 296 296 294 291 290 289 289 289 289 289 288 288 286 284 284 282 283 280 276 275 273 272 271 271
292 294 295 293 292 293 292 293 293 295 295 296 298 298 298 298 297 296 296 296 295 295 293 290 287 288 288 288 288 288 288 286 283 282 282 283 281 278 276 275 272 271 272
291 293 294 295 294 293 293 293 294 295 296 297 299 300 300 299 298 297 296 296 295 294 293 293 290 288 288 288 287 285 284 283 282 281 280 280 279 278 277 276 275 272 271
289 290 292 294 294 293 293 294 295 296 297 299 300 301 302 302 301 298 296 295 295 295 294 294 292 289 289 289 288 286 284 283 281 281 280 279 278 277 276 275 275 274 273
288 289 290 292 292 292 293 294 296 298 298 298 299 300 301 302 301 300 298 297 296 296 295 295 292 290 289 288 288 286 285 283 281 281 281 281 278 277 276 275 275 274 273
285 287 288 290 291 291 293 294 295 297 298 298 299 300 301 302 301 299 298 297 295 294 293 294 292 290 288 287 287 287 286 285 283 282 282 280 279 277 275 274 273 273 272
284 285 286 288 289 290 292 293 294 295 296 298 299 299 300 300 300 300 298 297 296 294 294 293 291 291 290 289 288 287 286 286 284 282 282 281 278 277 276 275 274 273 273
283 285 286 287 288 289 291 293 294 295 296 297 297 298 299 299 300 300 298 297 297 296 296 295 294 293 291 290 289 288 286 285 284 282 280 278 275 275 276 274 271 272 272
282 283 284 286 287 289 291 292 293 294 295 297 298 299 300 300 300 299 297 296 295 295 296 295 294 294 294 293 290 288 287 285 284 283 279 276 274 274 275 275 274 274 273
282 284 285 285 286 288 289 291 291 292 294 295 297 298 299 300 299 298 297 297 296 296 297 295 294 294 293 293 291 288 288 288 287 284 281 278 276 275 274 275 276 273 271
282 284 285 285 286 287 288 288 289 291 293 294 296 298 299 300 300 297 296 296 296 297 297 296 296 294 292 292 290 289 289 289 288 286 283 281 279 278 276 275 273 270 268
282 282 284 285 286 287 287 287 287 289 291 293 294 296 296 298 298 296 295 295 295 295 296 296 296 295 293 292 292 291 290 290 289 287 286 285 283 280 278 276 274 272 271
280 281 283 284 285 286 287 288 288 289 291 292 293 294 295 296 297 295 295 295 295 295 295 295 295 295 295 295 294 293 291 288 288 288 287 286 285 283 280 277 275 273 272
280 281 283 284 285 286 287 288 288 289 290 292 292 292 294 296 296 295 295 296 296 295 295 295 295 295 296 295 295 294 291 288 286 287 288 288 287 284 281 279 276 276 275
280 280 281 282 284 286 288 289 289 289 289 290 292 292 294 296 297 297 296 296 296 296 296 296 296 296 296 296 296 294 291 290 289 288 288 288 287 285 281 277 277 277 277
277 279 279 280 282 284 286 288 289 290 290 290 291 292 293 294 296 298 297 297 297 297 296 297 296 295 295 296 297 296 293 291 291 289 290 289 287 284 282 279 276 275 276
277 279 280 281 282 283 284 287 289 290 291 292 292 291 292 293 294 297 297 295 295 295 295 296 296 295 296 297 297 297 293 291 291 291 290 289 287 284 282 281 279 278 278
282 283 283 283 283 284 285 286 288 290 290 290 292 292 293 295 297 296 296 296 295 295 294 295 296 296 297 297 296 295 293 291 292 294 293 292 290 287 284 282 281 279 278
284 285 285 284 285 287 288 289 289 290 290 290 291 292 292 294 296 296 295 295 296 297 296 296 296 296 296 297 296 294 292 290 291 292 292 291 289 288 286 285 283 281 279
286 287 286 286 287 288 288 289 289 289 289 289 291 292 292 293 293 294 294 294 295 297 297 296 296 296 296 296 295 294 293 291 291 290 289 289 288 287 285 284 282 281 280
287 289 289 288 289 289 289 290 290 290 290 290 290 290 290 292 293 293 294 294 296 297 296 295 294 295 296 296 295 294 294 293 291 290 289 288 287 287 285 284 282 281 279